Alyeska Resort
Hourly Weather - Base Weather Site
ALY_BASE_HR 3/1/2015
CLICK TO VIEW GRAPH!!

        DATE  TIME   Air  BATT   H2o   H2o   Rel
                    Temp  Volt  Inch Since  Hum%
                      F   AVG   1HR  0600   AVG

    3/1/2015 15:00    30 14.00  0.00  0.00    94
    3/1/2015 14:00    32 13.99  0.00  0.00    88
    3/1/2015 13:00    32 14.03  0.00  0.00    90
    3/1/2015 12:00    31 14.02  0.00  0.00    91
    3/1/2015 11:00    31 14.02  0.00  0.00    92
    3/1/2015 10:00    31 14.03  0.00  0.00    96
    3/1/2015 09:00    30 14.03  0.00  0.00    96
    3/1/2015 08:00    30 14.03  0.00  0.00    96
    3/1/2015 07:00    31 14.03  0.00  0.00    96
    3/1/2015 06:00    31 14.03  0.00  0.00    96
    3/1/2015 05:00    31 14.02  0.00  0.00    95
    3/1/2015 04:00    32 14.02  0.00  0.00    95
    3/1/2015 03:00    32 14.02  0.00  0.00    94
    3/1/2015 02:00    31 14.04  0.00  0.00    94
    3/1/2015 01:00    30 14.05  0.00  0.00    94
   2/28/2015 24:00    32 14.02  0.00  0.00    93
   2/28/2015 23:00    32 14.01  0.00  0.00    89
   2/28/2015 22:00    34 13.99  0.00  0.00    82
   2/28/2015 21:00    34 13.97  0.00  0.00    86
   2/28/2015 20:00    35 13.96  0.00  0.00    85
   2/28/2015 19:00    35 13.95  0.00  0.00    86
   2/28/2015 18:00    37 13.94  0.00  0.00    75
   2/28/2015 17:00    38 13.92  0.00  0.00    75
   2/28/2015 16:00    39 13.92  0.00  0.00    74


CLICK TO VIEW GRAPH!!